Timestamp,Net Demand,Generation,Import,Solar,Wind,STOR,Other
2024-05-04T02:50:00,34.79,34.79,,1.70,28.23,,4.86
2024-05-04T02:55:00,230.1,35.55,194.55,1.70,28.33,0.66,4.86
2024-05-04T03:00:00,225.19,35.27,189.92,1.70,28.11,0.60,4.86
2024-05-04T03:05:00,231.19,34,197.19,1.70,26.85,0.59,4.86
2024-05-04T03:10:00,229.3,33.33,195.97,1.70,26.27,0.49,4.87
2024-05-04T03:15:00,222.61,33.03,189.58,1.70,25.90,0.56,4.87
2024-05-04T03:20:00,223.42,30.75,192.67,1.70,23.62,0.57,4.86
2024-05-04T03:25:00,223.41,30.3,193.11,1.70,23.20,0.54,4.86
2024-05-04T03:30:00,221.17,29.85,191.32,1.70,22.68,0.61,4.86
2024-05-04T03:35:00,220.37,28.04,192.33,1.70,20.88,0.60,4.86
2024-05-04T03:40:00,224.03,28.06,195.97,1.70,20.96,0.54,4.86
2024-05-04T03:45:00,222.88,28.7,194.18,1.70,21.58,0.56,4.86
2024-05-04T03:50:00,216.36,29.65,186.71,1.70,22.54,0.54,4.87
2024-05-04T03:55:00,223.81,30.76,193.05,1.70,23.58,0.62,4.86
2024-05-04T04:00:00,255.7,51.24,204.46,1.70,23.86,20.82,4.86
2024-05-04T04:05:00,215.15,32.12,183.03,1.70,24.26,1.30,4.86
2024-05-04T04:10:00,213.69,31.75,181.94,1.70,24.49,0.70,4.86
2024-05-04T04:15:00,213.97,31.17,182.80,1.70,24.07,0.54,4.86
2024-05-04T04:20:00,216.83,28.7,188.13,1.70,21.59,0.55,4.86
2024-05-04T04:25:00,216.42,27.27,189.15,1.70,20.08,0.63,4.86
2024-05-04T04:30:00,215.24,26.36,188.88,1.70,19.27,0.53,4.86
2024-05-04T04:35:00,220.13,26.19,193.94,1.70,19.02,0.61,4.86
2024-05-04T04:40:00,213.52,24.68,188.84,1.70,17.51,0.61,4.86
2024-05-04T04:45:00,217.24,23.8,193.44,1.70,16.65,0.59,4.86
2024-05-04T04:50:00,209.81,22.1,187.71,1.70,14.92,0.62,4.86
2024-05-04T04:55:00,216.68,22.08,194.60,1.70,14.86,0.66,4.86
2024-05-04T05:00:00,217.04,22.47,194.57,1.70,15.32,0.59,4.86
2024-05-04T05:05:00,212.55,21.72,190.83,1.70,14.48,0.68,4.86
2024-05-04T05:10:00,219.05,21.16,197.89,1.70,14.00,0.60,4.86
2024-05-04T05:15:00,218.42,20.63,197.79,1.70,13.45,0.62,4.86
2024-05-04T05:20:00,213.61,19.56,194.05,1.70,12.33,0.67,4.86
2024-05-04T05:25:00,219,19.6,199.40,1.70,12.26,0.78,4.86
2024-05-04T05:30:00,217.25,19.28,197.97,1.70,12.08,0.64,4.86
2024-05-04T05:35:00,217.33,18.45,198.88,1.70,11.24,0.65,4.86
2024-05-04T05:40:00,220.43,18.64,201.79,1.70,11.37,0.71,4.86
2024-05-04T05:45:00,217.91,19.56,198.35,1.70,12.34,0.66,4.86
2024-05-04T05:50:00,215.41,19.94,195.47,1.70,12.70,0.68,4.86
2024-05-04T05:55:00,216.77,20.75,196.02,1.70,13.47,0.71,4.87
2024-05-04T06:00:00,222.27,20.56,201.71,1.70,13.30,0.69,4.87
2024-05-04T06:05:00,229.61,21.02,208.59,1.80,13.61,0.74,4.87
2024-05-04T06:10:00,297.97,60.35,237.62,1.89,13.27,40.33,4.86
2024-05-04T06:15:00,294.22,62.96,231.26,2.00,14.50,41.60,4.86
2024-05-04T06:20:00,295.67,63.27,232.40,2.30,14.49,41.62,4.86
2024-05-04T06:25:00,305.6,64.86,240.74,3.09,15.16,41.75,4.86
2024-05-04T06:30:00,308.9,65.91,242.99,3.48,16.68,40.89,4.86
2024-05-04T06:35:00,231.56,26.94,204.62,4.07,17.54,0.46,4.87
2024-05-04T06:40:00,240.06,29.05,211.01,4.70,18.98,0.51,4.86
2024-05-04T06:45:00,238.98,30,208.98,5.30,19.46,0.38,4.86
2024-05-04T06:50:00,309.28,70.65,238.63,5.70,19.62,40.47,4.86
2024-05-04T06:55:00,321.03,73.28,247.75,6.04,20.65,41.73,4.86
2024-05-04T07:00:00,321.59,72.49,249.10,6.91,19.89,40.83,4.86
2024-05-04T07:05:00,247.47,33.56,213.91,8.45,19.04,1.21,4.86
2024-05-04T07:10:00,312.04,62.83,249.21,9.92,18.25,29.80,4.86
2024-05-04T07:15:00,336.68,77.03,259.65,11.26,17.93,42.98,4.86
2024-05-04T07:20:00,264.82,56.91,207.91,12.30,16.82,22.93,4.86
2024-05-04T07:25:00,271.21,63.24,207.97,13.50,15.66,29.22,4.86
2024-05-04T07:30:00,272.22,65.7,206.52,14.04,16.52,30.28,4.86
2024-05-04T07:35:00,262.69,36.06,226.63,14.60,16.05,0.54,4.87
2024-05-04T07:40:00,264.06,35.54,228.52,16.25,13.94,0.49,4.86
2024-05-04T07:45:00,268.17,41.77,226.40,17.75,14.07,5.09,4.86
2024-05-04T07:50:00,278,81.74,196.26,18.70,14.04,44.14,4.86
2024-05-04T07:55:00,279.23,81.72,197.51,19.44,13.11,44.31,4.86
2024-05-04T08:00:00,284.4,82.07,202.33,21.04,12.61,43.56,4.86
2024-05-04T08:05:00,286.81,55.74,231.07,24.47,12.24,14.17,4.86
2024-05-04T08:10:00,295.93,88.68,207.25,27.07,12.63,44.12,4.86
2024-05-04T08:15:00,297.93,91.68,206.25,30.16,12.58,44.08,4.86
2024-05-04T08:20:00,300.06,84.07,215.99,28.84,11.84,38.52,4.87
2024-05-04T08:25:00,290.96,53.34,237.62,28.45,12.27,7.76,4.86
2024-05-04T08:30:00,297.17,48.92,248.25,31.37,12.19,0.50,4.86
2024-05-04T08:35:00,299.64,49.23,250.41,31.61,12.30,0.46,4.86
2024-05-04T08:40:00,296.76,52.89,243.87,35.45,12.09,0.49,4.86
2024-05-04T08:45:00,302.46,54.97,247.49,36.85,12.83,0.43,4.86
2024-05-04T08:50:00,299.43,59.18,240.25,40.82,13.08,0.42,4.86
